CAPE
19 22 9 10 13 4 4 5 7 3 2 1 2 5 3 2 3 5 4 2 1 1 2 2 2 1 0 0 0 0 0 0 0 0 0 0 0 0 0 0 56 75 148 208 288 82 115
13 17 10 18 6 2 9 6 4 2 3 1 7 5 3 4 3 3 3 3 1 1 1 2 2 1 0 0 0 0 0 0 0 0 0 0 0 0 0 0 69 111 36 142 43 208 193
16 15 17 17 4 3 3 3 2 2 2 1 2 8 9 6 2 2 1 2 0 0 0 0 3 0 0 0 0 0 0 0 0 0 0 0 0 0 0 0 0 2 0 1 15 101 306
16 17 19 15 13 10 3 3 3 2 2 3 1 2 7 3 2 2 1 1 0 0 0 0 0 0 0 0 0 0 0 0 0 0 0 0 0 0 0 0 0 0 0 0 0 109 231
5 9 15 19 16 13 7 4 3 2 2 5 1 1 7 6 4 1 0 0 0 0 0 0 0 0 0 0 0 0 0 0 0 0 0 0 0 0 0 0 0 0 0 0 0 10 76
14 4 14 17 17 15 11 3 5 4 3 2 1 1 3 5 2 0 0 0 0 0 0 0 0 0 0 0 0 0 0 0 0 0 0 0 0 0 0 0 0 0 0 0 0 5 2
9 3 8 12 5 15 12 3 4 2 3 4 2 0 2 3 1 0 0 0 0 0 0 0 0 0 0 0 0 0 0 0 0 0 0 0 0 0 0 0 0 0 0 1 7 15 35
9 2 3 2 4 11 5 5 2 3 5 3 2 1 1 3 0 0 1 0 0 0 0 0 0 0 0 0 0 0 0 0 0 0 0 0 0 0 0 0 0 0 0 7 30 42 13
8 4 7 3 2 12 2 2 5 2 4 5 6 2 2 2 0 0 0 0 0 0 0 0 0 0 0 0 0 0 0 0 0 0 0 0 0 0 0 0 0 0 0 1 25 27 5
4 6 17 11 13 2 5 8 5 2 2 5 5 2 1 0 0 0 0 0 0 0 0 0 0 0 0 0 0 0 0 0 0 0 0 0 0 0 0 0 0 0 0 0 6 0 0
13 23 22 18 3 18 13 9 8 3 4 7 4 3 2 0 0 0 0 0 0 0 0 0 0 0 0 0 0 0 0 0 0 0 0 0 0 0 0 0 0 0 0 0 0 0 0
19 24 18 21 7 18 12 10 8 3 5 5 3 1 0 0 0 0 0 0 0 0 0 0 0 0 0 0 0 0 0 0 0 0 0 0 0 0 0 0 0 0 0 0 0 0 0
18 27 26 24 16 14 9 7 4 5 5 3 0 0 2 1 0 0 0 0 0 0 0 0 0 0 0 0 0 0 0 0 0 0 0 0 0 0 0 0 0 0 0 0 0 0 0
18 19 19 18 18 16 8 2 0 5 2 0 0 0 0 0 0 0 0 0 0 0 0 0 0 0 0 0 0 0 0 0 0 0 0 0 0 0 0 0 0 0 0 0 0 0 0
21 18 9 6 17 16 14 7 8 3 0 0 0 0 0 0 0 0 0 0 0 0 0 0 0 0 0 0 0 0 0 0 0 0 0 0 0 0 0 0 0 0 0 0 0 0 0
20 18 24 22 18 17 15 11 5 0 0 0 0 0 0 0 0 0 0 0 0 0 0 0 0 0 0 0 0 0 0 0 0 0 0 0 0 0 0 0 0 0 0 0 0 0 0
17 21 25 24 19 16 15 13 2 0 0 0 0 0 0 0 0 0 0 0 0 0 0 0 0 0 0 0 0 0 0 0 0 0 0 0 0 0 0 0 0 0 0 0 0 0 0
19 22 23 25 18 17 15 13 2 0 0 0 0 0 0 0 0 0 0 0 0 0 0 0 0 0 0 0 0 0 0 0 0 0 0 0 0 0 0 0 0 0 0 0 0 0 0
25 25 26 22 18 17 15 8 2 0 0 1 0 0 0 0 0 0 0 0 0 0 0 0 0 0 0 0 0 0 0 0 0 0 0 0 0 0 0 0 0 0 0 0 0 0 0
9 7 6 13 8 15 14 1 1 1 0 0 0 3 0 0 0 0 0 0 49 29 16 1 0 0 0 0 0 0 0 0 0 0 0 0 0 0 0 0 0 0 0 0 0 0 0
3 10 8 3 6 4 5 0 0 0 0 0 0 0 0 0 0 0 13 132 285 247 9 0 0 0 0 126 178 144 67 1 0 108 0 0 0 0 0 0 0 0 0 0 0 0 0
9 4 3 3 7 2 2 2 0 0 0 0 0 0 0 0 0 0 42 137 303 381 151 86 22 93 222 638 310 169 109 63 1 0 0 0 0 0 0 0 0 0 0 0 0 0 0
6 3 3 5 2 2 4 2 1 0 0 0 0 0 0 0 0 43 158 230 234 341 205 9 172 196 694 724 503 343 59 36 5 1 0 0 0 0 0 0 0 0 0 0 0 0 0
3 6 2 2 2 2 7 1 1 0 0 0 0 0 0 0 0 114 381 155 139 379 185 204 156 358 503 466 215 139 16 12 21 0 0 0 0 0 0 0 0 0 0 0 81 607 802
3 1 2 2 1 2 6 4 1 0 0 0 0 0 0 0 0 0 5 2 0 183 138 273 260 206 4 134 280 176 6 1 0 18 0 0 0 0 0 0 0 0 0 0 0 767 626
6 3 3 4 2 2 5 5 2 2 1 0 0 0 0 0 0 0 0 0 0 1 12 546 424 121 104 68 113 120 75 4 29 65 31 21 0 0 0 0 0 74 113 432 36 634 295
8 1 1 1 1 1 2 2 3 1 0 0 0 0 0 0 0 0 0 0 0 0 14 378 222 180 158 0 109 201 183 195 113 248 171 81 1 0 0 0 16 112 17 225 6 542 80
2 4 2 2 2 1 1 1 1 2 2 0 0 0 0 0 0 0 0 0 0 0 0 189 110 187 365 341 69 80 361 256 152 44 17 0 2 5 3 0 2 3 138 417 604 64 97
3 2 2 2 1 1 1 1 2 1 3 9 0 0 0 0 0 0 0 0 0 0 0 0 6 0 327 360 305 195 8 0 9 145 0 0 0 0 0 0 0 0 60 2 4 15 10
CIN
-1 -2 -0 -0 -0 -0 -0 -1 -1 -0 -0 -0 -0 -0 -0 -0 -0 -0 -0 -0 -0 -0 -0 -0 -0 -0 -0 -0 -0 -0 -0 -0 -0 -0 -0 -0 -0 -0 -0 -0 -81 -78 -82 -60 -73 -50 -86
-0 -1 -0 -0 -0 -0 -0 -0 -0 -0 -0 -0 -0 -0 -0 -0 -0 -0 -0 -0 -0 -0 -0 -0 -0 -0 -0 -0 -0 -0 -0 -0 -0 -0 -0 -0 -0 -0 -0 -0 -62 -39 -26 -31 -43 -44 -51
-0 -1 -1 -0 -0 -0 -0 -0 -0 -0 -0 -0 -0 -0 -0 -0 -0 -0 -0 -0 -0 -0 -0 -0 -0 -0 -0 -0 -0 -0 -0 -0 -0 -0 -0 -0 -0 -0 -0 -0 -0 -34 -3 -2 -20 -132 -99
-0 -0 -1 -0 -0 -0 -0 -0 -0 -0 -0 -0 -0 -0 -0 -0 -0 -0 -0 -0 -0 -0 -0 -0 -0 -0 -0 -0 -0 -0 -0 -0 -0 -0 -0 -0 -0 -0 -0 -0 -0 -0 -0 -0 -0 -98 -143
-0 -0 -0 -1 -1 -0 -0 -0 -0 -0 -0 -0 -0 -0 -0 -0 -0 -0 -0 -0 -0 -0 -0 -0 -0 -0 -0 -0 -0 -0 -0 -0 -0 -0 -0 -0 -0 -0 -0 -0 -0 -0 -0 -0 -0 -60 -60
-0 -0 -0 -1 -0 -1 -0 -0 -0 -0 -0 -0 -0 -0 -0 -0 -0 -0 -0 -0 -0 -0 -0 -0 -0 -0 -0 -0 -0 -0 -0 -0 -0 -0 -0 -0 -0 -0 -0 -0 -0 -0 -0 -0 -0 -54 -15
-0 -0 -0 -0 -0 -1 -0 -0 -0 -0 -0 -0 -0 -0 -0 -0 -0 -0 -0 -0 -0 -0 -0 -0 -0 -0 -0 -0 -0 -0 -0 -0 -0 -0 -0 -0 -0 -0 -0 -0 -0 -0 -0 -8 -18 -28 -27
-0 -0 -0 -0 -0 -0 -0 -0 -0 -0 -0 -0 -0 -0 -0 -0 -0 -0 -0 -0 -0 -0 -0 -0 -0 -0 -0 -0 -0 -0 -0 -0 -0 -0 -0 -0 -0 -0 -0 -0 -0 -0 -0 -6 -44 -31 -30
-0 -0 -0 -0 -0 -0 -0 -0 -0 -0 -0 -0 -0 -0 -0 -1 -0 -0 -0 -0 -0 -0 -0 -0 -0 -0 -0 -0 -0 -0 -0 -0 -0 -0 -0 -0 -0 -0 -0 -0 -0 -0 -0 -11 -6 -20 -25
-0 -0 -1 -0 -0 -0 -0 -0 -0 -0 -0 -0 -0 -0 -0 -0 -0 -0 -0 -0 -0 -0 -0 -0 -0 -0 -0 -0 -0 -0 -0 -0 -0 -0 -0 -0 -0 -0 -0 -0 -0 -0 -0 -0 -24 -0 -0
-0 -1 -2 -2 -0 -2 -1 -1 -1 -0 -0 -1 -0 -0 -4 -8 -0 -0 -0 -0 -0 -0 -0 -0 -0 -0 -0 -0 -0 -0 -0 -0 -0 -0 -0 -0 -0 -0 -0 -0 -0 -0 -0 -0 -30 -0 -0
-1 -1 -0 -1 -0 -1 -1 -1 -1 -0 -1 -1 -1 -1 -4 -0 -0 -0 -0 -0 -0 -0 -0 -0 -0 -0 -0 -0 -0 -0 -0 -0 -0 -0 -0 -0 -0 -0 -0 -0 -0 -0 -0 -0 -0 -0 -0
-0 -2 -1 -3 -0 -1 -1 -1 -1 -3 -2 -3 -0 -0 -0 -0 -0 -0 -0 -0 -0 -0 -0 -0 -0 -0 -0 -0 -0 -0 -0 -0 -0 -0 -0 -0 -0 -0 -0 -0 -0 -0 -0 -0 -0 -0 -0
-1 -0 -0 -1 -3 -5 -1 -0 -0 -4 -3 -0 -0 -0 -0 -0 -0 -0 -0 -0 -0 -0 -0 -0 -0 -0 -0 -0 -0 -0 -0 -0 -0 -0 -0 -0 -0 -0 -0 -0 -0 -0 -0 -0 -0 -0 -0
-0 -0 -0 -0 -3 -5 -2 -1 -4 -2 -0 -0 -0 -0 -0 -0 -0 -0 -0 -0 -0 -0 -0 -0 -0 -0 -0 -0 -0 -0 -0 -0 -0 -0 -0 -0 -0 -0 -0 -0 -0 -0 -0 -0 -0 -0 -0
-0 -1 -3 -4 -2 -4 -4 -4 -1 -0 -0 -0 -0 -0 -0 -0 -0 -0 -0 -0 -0 -0 -0 -0 -0 -0 -0 -0 -0 -0 -0 -0 -0 -0 -0 -0 -0 -0 -0 -0 -0 -0 -0 -0 -0 -0 -0
-1 -3 -3 -4 -4 -4 -4 -2 -0 -0 -0 -0 -0 -0 -0 -0 -0 -0 -0 -0 -0 -0 -0 -0 -0 -0 -0 -0 -0 -0 -0 -0 -0 -0 -0 -0 -0 -0 -0 -0 -0 -0 -0 -0 -0 -0 -0
-0 -1 -3 -1 -4 -3 -1 -1 -3 -0 -0 -0 -0 -0 -0 -0 -0 -0 -0 -0 -0 -0 -0 -0 -0 -0 -0 -0 -0 -0 -0 -0 -0 -0 -0 -0 -0 -0 -0 -0 -0 -0 -0 -0 -0 -0 -0
-1 -1 -1 -1 -1 -0 -0 -0 -3 -0 -0 -0 -0 -0 -0 -0 -0 -0 -0 -0 -0 -0 -0 -0 -0 -0 -0 -0 -0 -0 -0 -0 -0 -0 -0 -0 -0 -0 -0 -0 -0 -0 -0 -0 -0 -0 -0
-0 -0 -0 -0 -0 -0 -0 -0 -1 -2 -0 -0 -0 -52 -0 -0 -0 -0 -0 -0 -311 -323 -126 -124 -0 -0 -0 -0 -0 -0 -0 -0 -0 -0 -0 -0 -0 -0 -0 -0 -0 -0 -0 -0 -0 -0 -0
-0 -0 -0 -0 -0 -0 -0 -0 -0 -0 -0 -0 -0 -0 -0 -0 -0 -0 -289 -264 -240 -237 -283 -0 -0 -0 -0 -87 -146 -200 -157 -163 -0 -213 -0 -0 -0 -0 -0 -0 -0 -0 -0 -0 -0 -0 -0
-0 -0 -0 -0 -0 -0 -0 -0 -0 -0 -0 -0 -0 -0 -0 -0 -0 -3 -241 -254 -237 -233 -304 -209 -201 -117 -65 -40 -140 -191 -229 -254 -161 -0 -0 -0 -0 -0 -0 -0 -0 -0 -0 -0 -0 -0 -0
-0 -0 -0 -0 -0 -0 -0 -0 -0 -1 -0 -0 -0 -0 -0 -0 -0 -178 -237 -240 -227 -218 -340 -384 -246 -248 -23 -48 -100 -185 -298 -345 -186 -55 -0 -0 -0 -0 -0 -0 -0 -0 -0 -0 -0 -0 -0
-0 -0 -0 -0 -0 -0 -0 -0 -0 -0 -0 -0 -0 -0 -0 -0 -0 -161 -128 -216 -236 -112 -325 -258 -265 -131 -106 -206 -392 -345 -422 -337 -231 -0 -0 -0 -0 -0 -0 -0 -0 -0 -0 -0 -70 -177 -208
-0 -0 -0 -0 -0 -0 -0 -0 -0 -0 -0 -0 -0 -0 -0 -0 -0 -0 -28 -44 -0 -155 -241 -134 -143 -223 -63 -217 -254 -233 -8 -15 -24 -207 -0 -0 -0 -0 -0 -0 -0 -0 -0 -0 -0 -143 -221
-0 -0 -0 -0 -0 -0 -0 -0 -0 -0 -0 -0 -0 -0 -0 -0 -0 -0 -0 -0 -0 -70 -191 -73 -202 -420 -402 -211 -118 -85 -84 -108 -77 -70 -319 -230 -0 -0 -0 -0 -0 -198 -310 -321 -156 -125 -318
-0 -0 -0 -0 -0 -0 -0 -0 -0 -0 -0 -0 -0 -0 -0 -0 -0 -0 -0 -0 -0 -0 -226 -230 -306 -237 -283 -0 -102 -67 -34 -102 -65 -111 -216 -251 -157 -14 -0 -0 -192 -363 -563 -373 -42 -120 -491
-0 -0 -0 -0 -0 -0 -0 -0 -0 -0 -0 -0 -0 -0 -0 -0 -0 -0 -0 -0 -0 -0 -23 -259 -265 -311 -201 -87 -113 -159 -134 -227 -227 -219 -285 -0 -98 -153 -191 -0 -105 -213 -337 -121 -221 -489 -479
-0 -0 -0 -0 -0 -0 -0 -0 -0 -0 -1 -1 -0 -0 -0 -0 -0 -0 -0 -0 -0 -0 -0 -3 -17 -20 -203 -194 -213 -281 -339 -0 -155 -79 -0 -0 -0 -0 -0 -0 -0 -0 -384 -57 -361 -523 -129
Wind_Speed
14 13 15 14 13 15 15 14 14 14 15 15 16 16 16 16 17 18 19 19 19 19 19 17 15 15 6 2 12 7 6 5 3 5 5 3 3 3 3 7 5 5 6 7 8 8 11
14 15 16 14 15 15 14 14 14 15 15 16 16 16 16 17 18 19 19 19 20 19 18 15 11 10 2 4 7 7 7 5 5 5 3 7 6 1 7 5 3 7 7 10 6 12 9
14 14 15 14 16 16 16 15 15 15 15 16 17 16 16 17 19 20 20 20 22 21 17 12 9 4 2 17 4 6 1 4 4 4 4 6 3 3 6 11 5 3 3 3 4 9 6
14 15 14 13 15 15 16 16 15 16 16 16 17 18 17 18 20 20 21 21 24 21 13 9 3 2 9 7 5 7 4 8 7 7 6 10 4 5 4 6 8 6 5 1 6 8 6
16 15 15 14 13 13 15 16 16 16 16 15 17 18 17 18 18 19 20 26 24 16 7 3 1 1 13 13 2 10 8 5 6 6 5 8 2 2 5 4 6 5 4 3 8 11 6
15 16 15 15 15 14 14 16 15 16 16 17 17 18 19 18 18 18 22 25 11 6 3 5 5 4 5 6 4 5 5 6 4 5 7 1 4 3 4 5 6 4 3 6 6 7 8
16 17 15 15 17 15 14 16 16 17 17 17 18 19 20 18 18 15 11 7 4 3 1 10 7 6 4 3 4 4 7 1 1 2 6 3 3 7 14 4 3 7 8 8 6 4 6
15 16 16 17 16 16 16 16 17 17 16 18 19 20 21 20 20 16 5 2 6 6 8 14 18 13 18 4 7 10 9 7 6 7 5 4 7 15 3 7 9 11 17 13 3 6 5
15 16 16 16 17 15 17 17 16 17 16 17 18 18 21 22 26 3 4 9 5 10 2 8 10 8 8 10 8 10 12 8 3 7 5 8 13 10 9 11 12 10 12 5 6 3 8
15 16 14 15 14 17 16 16 17 18 18 17 17 18 19 25 2 5 6 4 4 6 5 10 8 10 6 8 6 9 10 9 5 12 6 7 14 9 9 10 6 7 9 2 5 5 3
14 14 14 14 16 14 15 16 16 18 17 15 18 16 14 8 8 4 4 12 9 4 3 5 6 4 9 11 2 5 6 3 11 6 9 11 5 11 8 16 7 11 7 2 4 4 5
14 14 14 14 16 14 15 15 15 17 17 16 17 18 12 4 4 9 14 15 4 7 8 6 7 7 8 6 5 3 5 3 5 5 5 10 6 8 13 14 12 11 2 9 7 4 4
14 15 15 14 15 14 14 14 16 16 16 17 18 16 6 4 6 5 9 4 6 4 6 4 5 7 9 8 5 7 4 9 10 5 4 7 8 7 5 7 4 3 7 4 5 6 6
14 14 14 14 14 15 15 18 20 16 18 20 20 20 7 11 4 5 4 6 3 6 6 9 6 5 7 6 6 6 6 11 5 5 3 7 8 6 5 10 9 6 9 8 4 4 6
14 14 15 16 14 15 15 17 16 19 21 22 21 1 3 6 12 1 6 3 7 7 4 10 12 6 3 6 5 8 9 10 10 8 9 6 8 6 6 7 10 3 3 9 8 2 3
14 15 15 14 14 15 16 16 18 22 24 24 2 3 4 8 13 4 6 5 7 4 9 3 4 2 10 9 7 8 8 9 10 11 7 5 3 4 8 1 2 10 6 3 4 2 3
14 15 15 15 15 16 17 17 21 23 26 10 1 3 3 12 4 6 3 8 8 9 8 6 12 9 3 7 9 7 8 6 12 13 11 7 5 13 2 3 9 2 2 6 6 6 6
13 15 16 15 16 16 17 17 19 21 25 4 4 2 4 6 4 2 3 5 6 13 12 10 10 13 5 2 3 7 11 10 18 13 11 10 7 7 13 8 8 9 11 8 7 5 3
16 15 15 16 16 17 17 17 16 15 13 4 3 3 2 5 1 3 6 7 8 17 11 6 7 8 8 6 1 8 14 17 10 16 13 8 3 6 12 9 3 6 5 6 6 4 6
16 16 16 16 17 17 17 19 17 14 9 1 1 2 4 3 1 2 7 13 5 9 10 9 10 6 10 7 5 8 10 12 11 15 9 11 5 9 9 9 3 3 3 4 8 5 5
17 17 16 17 17 18 18 19 20 19 19 4 2 1 3 3 3 2 3 6 12 9 3 4 8 4 3 5 8 8 9 10 1 12 8 9 8 7 8 3 2 2 6 8 7 9 7
17 17 17 17 17 17 18 19 20 21 19 1 1 2 2 3 3 2 3 2 7 9 4 8 3 18 6 3 4 5 4 4 2 10 6 1 6 5 4 3 6 4 6 5 8 8 3
17 17 17 16 17 17 17 18 18 18 13 3 4 4 4 5 3 1 4 3 6 8 10 8 12 19 8 3 2 5 6 3 4 2 0 5 6 5 6 3 5 5 5 3 3 3 3
18 17 17 17 16 16 16 16 16 15 11 1 4 2 3 6 2 5 3 2 12 6 7 13 18 7 4 6 6 6 4 6 4 2 2 5 6 4 4 5 5 10 5 5 9 6 5
18 18 17 17 16 16 15 14 14 13 11 3 3 1 1 5 3 12 9 8 10 5 8 5 7 3 10 6 5 7 7 7 6 4 5 6 6 2 6 4 5 6 7 4 3 5 7
18 18 17 17 16 16 15 14 13 12 13 1 4 3 1 1 7 4 8 5 4 1 4 6 6 6 4 4 5 2 2 4 6 6 5 7 7 6 3 5 8 3 8 5 4 5 15
17 18 18 17 17 16 15 14 13 13 13 6 5 2 0 3 7 2 4 3 5 1 2 6 7 7 3 3 3 2 5 2 2 2 5 6 5 4 2 2 1 4 13 9 7 7 10
19 18 18 18 17 17 15 14 12 12 12 8 6 4 2 3 9 8 4 5 4 1 2 5 6 4 4 3 2 2 3 2 4 1 6 2 1 2 0 2 4 6 5 6 7 3 5
20 19 18 18 18 17 15 13 11 11 10 8 3 4 4 4 9 7 15 16 13 11 3 3 4 3 3 4 2 3 3 1 3 2 2 1 3 3 4 4 4 4 2 2 2 5 6
Wind_Direction
359 8 5 2 2 2 359 356 353 350 347 343 340 336 332 332 331 329 327 324 320 320 322 322 323 325 343 8 252 264 168 153 164 141 182 200 254 203 331 303 174 244 183 219 252 108 118
2 1 3 359 360 357 357 354 351 349 345 341 336 335 333 330 330 328 326 320 318 317 318 317 318 322 293 277 247 204 171 140 238 159 214 184 218 222 269 275 217 208 211 184 165 122 132
355 359 1 360 356 353 352 350 349 347 345 341 337 334 331 330 330 328 323 316 315 313 312 310 310 286 277 234 238 53 252 239 213 206 196 239 241 108 311 307 335 216 128 126 199 158 143
358 355 356 357 354 350 348 347 346 345 342 339 336 333 330 329 328 324 320 314 309 305 299 297 313 265 249 251 289 282 216 275 269 255 190 259 145 251 187 248 351 298 70 281 248 141 177
353 353 345 350 350 348 345 343 343 342 341 336 334 332 328 326 326 323 319 310 304 294 276 221 48 106 267 301 214 235 175 232 286 298 265 272 29 226 354 52 6 333 205 229 302 195 153
352 350 344 349 343 342 343 340 342 340 337 335 332 331 329 324 325 325 321 308 293 330 176 201 252 345 267 254 242 199 203 197 222 294 338 13 45 27 5 81 224 244 215 241 224 215 178
353 349 348 346 342 337 337 338 339 338 335 334 331 329 328 323 324 328 346 354 16 17 273 206 199 250 278 279 284 239 216 173 78 151 179 276 91 230 244 202 281 272 263 246 238 255 147
353 346 344 340 341 335 334 337 338 335 334 332 331 329 328 323 318 316 301 225 235 150 297 230 250 244 270 40 308 278 113 153 133 203 139 2 217 242 302 279 265 269 284 252 311 199 123
347 342 341 340 339 332 335 335 334 334 333 330 327 330 329 323 315 333 198 233 288 24 271 278 201 210 228 147 219 252 140 184 149 181 180 173 234 244 242 264 269 274 268 205 187 160 53
343 341 337 337 339 335 334 333 331 331 331 329 327 328 332 330 357 337 254 264 280 169 22 272 207 244 191 168 287 211 177 152 199 186 176 212 247 235 257 260 226 268 255 36 110 89 122
338 339 336 336 338 330 333 330 330 328 326 320 322 323 318 341 292 283 259 336 320 66 339 235 199 197 159 150 197 248 169 115 198 202 124 238 223 228 239 240 237 244 255 169 176 103 95
335 336 336 334 338 335 332 327 325 325 319 313 316 311 319 315 212 252 313 306 69 52 258 290 162 157 125 164 252 11 157 135 171 195 273 231 244 169 222 245 219 236 114 39 41 73 55
340 341 342 344 338 332 326 325 325 317 313 309 299 293 257 267 228 351 311 33 59 161 315 320 207 155 164 189 218 163 186 195 188 152 264 313 270 251 196 276 343 158 64 9 5 6 215
343 338 339 333 328 325 331 335 332 322 316 310 306 302 247 212 219 318 9 56 165 235 270 292 39 31 180 156 243 174 162 199 245 118 104 186 303 183 231 183 187 191 146 149 200 212 255
340 340 339 338 330 330 333 332 329 328 322 316 314 277 219 240 202 233 73 88 215 236 2 352 329 120 262 240 180 174 183 201 209 158 173 166 265 287 230 205 137 191 141 190 129 60 84
341 340 340 339 345 338 338 336 338 332 326 327 308 316 250 130 154 94 75 231 248 254 1 9 310 249 201 208 176 157 185 201 212 181 158 240 293 224 282 40 205 150 169 88 20 192 232
341 340 343 348 343 342 340 343 346 337 333 344 34 22 301 127 124 54 172 242 285 285 314 346 303 294 264 214 199 180 209 224 187 211 158 167 99 274 59 213 211 37 107 60 117 134 148
342 341 345 343 343 342 343 347 347 341 339 43 332 24 185 124 69 212 202 226 272 289 302 289 257 273 225 259 260 246 210 213 202 182 195 189 169 225 232 250 218 174 187 136 132 257 207
346 349 349 346 342 343 344 344 344 342 5 332 335 272 278 85 119 288 292 286 280 271 265 277 296 278 299 233 241 228 224 221 198 182 192 173 245 259 327 346 24 160 196 150 123 81 214
346 345 344 347 342 341 339 344 345 336 334 287 312 36 335 32 166 313 321 294 276 313 260 235 245 288 310 318 241 279 220 228 204 190 187 137 139 159 192 212 225 31 307 201 137 119 205
347 350 345 346 347 345 343 345 347 341 335 151 179 258 182 270 284 267 182 272 295 295 275 278 317 215 215 308 324 24 5 349 60 166 137 132 177 177 234 195 337 182 244 263 180 207 163
348 347 349 349 348 349 348 349 350 347 344 53 65 74 354 271 278 248 233 251 327 338 269 308 343 320 272 156 169 286 337 44 314 316 133 64 199 139 278 55 30 306 292 258 237 227 238
345 346 347 347 348 349 349 350 354 358 354 16 314 328 126 253 276 247 220 245 287 318 282 230 300 316 228 102 274 194 228 194 206 258 12 104 123 90 232 17 27 345 268 237 266 249 213
346 346 346 347 347 348 347 350 354 2 18 303 268 342 21 276 278 252 282 280 292 288 241 301 321 292 319 73 12 33 333 314 13 306 168 119 97 111 196 59 265 240 355 295 97 46 24
343 344 344 345 346 347 346 348 355 357 357 326 285 20 316 281 291 299 265 260 303 268 268 298 291 260 289 75 72 356 348 9 292 293 17 103 114 110 134 182 285 344 360 19 51 342 354
341 342 341 342 342 343 343 344 351 356 353 310 255 210 311 329 255 25 318 253 267 237 299 228 258 283 6 60 77 107 313 266 303 349 18 70 77 128 84 163 211 235 290 266 185 360 0
338 339 338 339 339 339 338 338 339 344 347 335 274 272 142 256 266 45 241 306 302 14 227 295 321 355 35 79 81 161 203 248 301 81 359 351 6 79 66 149 289 293 290 310 93 224 319
338 336 336 335 334 334 333 331 330 336 342 349 273 249 154 267 280 243 258 282 335 257 176 285 12 352 10 80 118 327 64 331 69 279 139 194 89 79 329 103 232 321 332 99 204 223 228
338 336 334 333 333 332 331 329 327 331 332 337 284 331 333 207 254 286 266 243 230 236 19 321 196 237 221 96 89 111 33 49 184 257 57 94 181 198 172 224 214 278 263 330 185 271 319